Location: Unspecified
(0.0000°N, 0.0000°E)
Time: 11:28:08
(UTC+00:00)

Vanguard 1 - All Passes

Search period start: 31 October 2014 00:00
Search period end: 10 November 2014 00:00
Orbit: 652 x 3835 km, 34.2° (Epoch: 30 October)

Date Brightness Start Highest point End Pass type
(mag) Time Alt. Az. Time Alt. Az. Time Alt. Az.
31 Oct - 00:52:03 10° SW 01:12:39 50° SSE 01:25:00 10° ENE visible
31 Oct - 03:20:27 10° WSW 03:37:03 63° NW 03:45:49 10° NE visible
31 Oct - 05:57:07 10° NW 05:58:08 10° NW 05:59:06 10° NW daylight
31 Oct - 13:04:41 10° NNW 13:10:14 32° NE 13:19:10 10° ESE daylight
31 Oct - 15:23:19 10° WNW 15:31:38 61° SSW 15:47:27 10° SE daylight
31 Oct - 17:47:27 10° WSW 17:58:25 26° SSW 18:14:28 10° SSE visible
31 Oct - 20:18:09 10° SW 20:31:42 19° S 20:46:31 10° SE visible
31 Oct - 22:47:10 10° SSW 23:06:15 30° SSE 23:21:16 10° ESE visible
01 Nov - 01:14:04 10° SW 01:35:09 64° SSE 01:47:09 10° ENE visible
01 Nov - 03:43:37 10° WSW 03:58:31 45° NW 04:06:49 10° NNE visible
01 Nov - 13:25:28 10° NW 13:31:31 50° NE 13:42:16 10° ESE daylight
01 Nov - 15:45:20 10° W 15:53:54 45° SSW 16:09:23 10° SE daylight
01 Nov - 18:11:10 10° WSW 18:22:02 22° SSW 18:36:51 10° SSE visible
01 Nov - 20:41:47 10° SSW 20:56:22 20° S 21:11:29 10° SE visible
01 Nov - 23:09:13 10° SW 23:29:44 36° SSE 23:44:52 10° E visible
02 Nov - 01:36:15 10° SW 01:57:22 80° SE 02:08:58 10° ENE visible
02 Nov - 04:07:24 10° W 04:19:57 31° NW 04:27:33 10° NNE visible
02 Nov - 13:46:36 10° NW 13:52:57 77° NE 14:04:52 10° ESE daylight
02 Nov - 16:07:45 10° W 16:16:28 34° SSW 16:31:10 10° SE daylight
02 Nov - 18:35:14 10° SW 18:46:00 19° S 18:59:50 10° SSE visible
02 Nov - 21:04:45 10° SSW 21:20:51 23° SSE 21:36:40 10° ESE visible
02 Nov - 23:31:08 10° SW 23:52:51 45° SSE 00:07:55 10° E visible
03 Nov - 01:58:43 10° SW 02:19:18 81° NW 02:30:30 10° NE visible
03 Nov - 04:32:01 10° W 04:41:28 21° NW 04:47:53 10° N visible
03 Nov - 11:50:55 10° N 11:54:22 17° NE 11:58:48 10° E daylight
03 Nov - 14:08:02 10° WNW 14:14:37 73° SW 14:27:04 10° SE daylight
03 Nov - 16:30:37 10° WSW 16:39:20 27° SSW 16:52:58 10° SSE daylight
03 Nov - 18:59:18 10° SW 19:10:17 18° S 19:23:42 10° SE visible
03 Nov - 21:27:10 10° SSW 21:45:00 27° SSE 22:01:34 10° ESE visible
03 Nov - 23:53:03 10° SW 00:15:39 56° SSE 00:30:30 10° ENE visible
04 Nov - 02:21:32 10° WSW 02:41:02 63° NW 02:51:47 10° NE visible
04 Nov - 04:57:58 10° WNW 05:03:12 14° NW 05:07:22 10° NNW visible
04 Nov - 12:11:05 10° NNW 12:15:40 29° NE 12:22:28 10° E daylight
04 Nov - 14:29:47 10° WNW 14:36:34 51° SSW 14:48:58 10° SE daylight
04 Nov - 16:53:58 10° WSW 17:02:30 21° SSW 17:14:53 10° SSE daylight
04 Nov - 19:22:58 10° SSW 19:34:46 18° S 19:48:36 10° SE visible
04 Nov - 21:49:12 10° SSW 22:08:45 32° SSE 22:25:55 10° E visible
05 Nov - 00:15:03 10° SW 00:38:10 69° SE 00:52:40 10° ENE visible
05 Nov - 02:44:50 10° WSW 03:02:38 47° NW 03:12:50 10° NNE visible
05 Nov - 12:31:53 10° NW 12:36:58 50° NE 12:45:19 10° ESE daylight
05 Nov - 14:51:55 10° W 14:58:48 36° SSW 15:10:39 10° SE daylight
05 Nov - 17:17:46 10° SW 17:26:01 18° S 17:37:09 10° SSE daylight
05 Nov - 19:45:59 10° SSW 19:59:14 20° SSE 20:14:12 10° SE visible
05 Nov - 22:11:03 10° SW 22:32:08 39° SSE 22:49:39 10° E visible
06 Nov - 00:37:13 10° SW 01:00:25 85° SE 01:14:31 10° NE visible
06 Nov - 03:08:46 10° W 03:24:14 34° NW 03:33:39 10° NNE visible
06 Nov - 12:53:03 10° NW 12:58:23 84° NE 13:07:38 10° SE daylight
06 Nov - 15:14:29 10° WSW 15:21:19 27° SSW 15:32:10 10° SSE daylight
06 Nov - 17:41:47 10° SW 17:49:50 16° S 18:00:09 10° SSE visible
06 Nov - 20:08:23 10° SSW 20:23:29 23° SSE 20:39:54 10° ESE visible
06 Nov - 22:32:49 10° SW 22:55:11 48° SSE 23:12:47 10° E visible
07 Nov - 00:59:41 10° WSW 01:22:27 79° NW 01:36:04 10° NE visible
07 Nov - 03:33:29 10° W 03:45:57 24° NW 03:54:11 10° N visible
07 Nov - 10:57:15 10° N 11:00:00 15° NE 11:03:12 10° ENE daylight
07 Nov - 13:14:34 10° WNW 13:20:02 62° SSW 13:29:34 10° SE daylight
07 Nov - 15:37:34 10° WSW 15:44:05 20° SSW 15:53:37 10° SSE daylight
07 Nov - 18:05:32 10° SSW 18:13:56 15° S 18:24:20 10° SE visible
07 Nov - 20:30:21 10° SSW 20:47:24 27° SSE 21:05:11 10° ESE visible
07 Nov - 22:54:37 10° SW 23:17:56 59° SE 23:35:26 10° ENE visible
08 Nov - 01:22:31 10° WSW 01:44:19 62° NW 01:57:24 10° NE visible
08 Nov - 03:59:18 10° WNW 04:07:53 17° NW 04:14:15 10° N visible
08 Nov - 11:17:23 10° NNW 11:21:22 28° NE 11:26:39 10° E daylight
08 Nov - 13:36:28 10° W 13:41:58 40° SSW 13:51:12 10° SE daylight
08 Nov - 16:01:14 10° SW 16:07:10 16° S 16:15:07 10° SSE daylight
08 Nov - 18:28:36 10° SSW 18:38:09 16° SSE 18:49:48 10° SE visible
08 Nov - 20:52:04 10° SSW 21:10:56 33° SSE 21:29:47 10° E visible
08 Nov - 23:16:31 10° SW 23:40:26 73° SE 23:57:39 10° ENE visible
09 Nov - 01:45:51 10° WSW 02:06:06 48° NW 02:18:31 10° NNE visible
09 Nov - 04:27:28 10° NW 04:30:09 11° NW 04:32:33 10° NNW visible
09 Nov - 11:38:13 10° NW 11:42:43 52° NE 11:49:13 10° ESE daylight
09 Nov - 13:58:47 10° W 14:04:10 27° SSW 14:12:33 10° SSE daylight
09 Nov - 16:25:25 10° SSW 16:30:32 13° S 16:36:53 10° SSE daylight
09 Nov - 18:50:57 10° SSW 19:02:19 18° SSE 19:16:02 10° SE visible
09 Nov - 21:13:41 10° SSW 21:34:07 41° SSE 21:53:40 10° E visible
09 Nov - 23:38:37 10° SW 00:00:00 76° SW 00:00:00 76° SW visible
